Location: Corcelles
(46.1547°N, 4.7234°E)
Time: 21:03:49
(UTC+00:00)

CZ-2D R/B - Pass Details

Date: 14 July 2020
Orbit: 552 x 639 km, 97.9° (Epoch: 14 August)

Event Time Altitude Azimuth Distance (km) Brightness Sun altitude
Rises 02:37:47 0° 16° (NNE) 2,934 8.3 -12.0°
Reaches altitude 10° 02:40:02 10° 20° (NNE) 2,011 7.4 -11.7°
Maximum altitude 02:44:23 61° 101° (E) 701 4.0 -11.2°
Drops below altitude 10° 02:48:35 10° 182° (S) 1,948 5.7 -10.8°
Enters shadow 02:48:59 - 183° (S) 2,109 5.8 -10.7°
